Location:  
MeteoStar


Sort by weather type Sort by elevation Sort by visibility Sort from west to east north Sort from north to south Alphabetically Sort from strongest wind speed Sort from lowest to highest pressure Sort from highest to lowest dew point temperature Sort coolest temperatures to warmest Sort warm temperatures to coolest
 Metric

Current Observations for United Kingdom sorted from warmest to coolest

London City Airport23:50ZMostly Cloudy63 48201014.1NW 7 6316
Gravesend-Broadness23:50ZNot Avail.62 50301014WNW 7 629
Manston00:00ZNot Avail.62 55251013.9NNW 10 62180
London / Heathrow Airport23:50ZCloudy61 52301014.1N 5 6178
Saint Catherines Point23:50ZNot Avail.60 53191014.5NW 6 6052
Farnborough00:00ZNot Avail.60 54201014.4WNW 4 60213
Langdon Bay23:50ZNot Avail.59 55301013.5NW 11 59383
Kenley00:00ZNot Avail.59 54301014.4N 7 59557
Northolt23:50ZMostly Cloudy59 50121014.1NNW 4 59124
Odiham23:50ZMostly Cloudy59 54201014.0W 5 59403
Lydd Airport 23:50ZClear59 55301014.1W 7 599
Shoreham Airport23:50ZNot Avail.59 51201014.2WNW 6 596
Jersey Airport00:00ZCloudy59 55201016.0WNW 4 59275
Herstmonceux00:00ZNot Avail.58 53251014.2NW 5 58170
Thorney Island00:00ZNot Avail.58 53301014.4WNW 6 5813
Isle Of Portland00:00ZNot Avail.58 56191015WNW 4 58173
Guernsey Airport00:00ZCloudy58 56201015.9W 4 58334
Scilly; Saint MaryS00:00ZNot Avail.58 53301015.7W 3 58101
Chivenor00:00ZNot Avail.58 56201015.2WNW 6 5826
Camborne00:00ZCloudy57 5491015.7WSW 3 57285
Larkhill00:00ZNot Avail.57 54141014.7W 4 57433
Weybourne00:00ZNot Avail.57 46301012.7WNW 19 5768
Crosby00:00ZNot Avail.57 50201014.2WNW 10 5726
Middle Wallop23:50ZMostly Cloudy57 54121014.0WNW 2 57298
Brize Norton23:50ZMostly Cloudy57 50251014.1NNE 3 57288
Fairford Royal Air Force Base23:38ZCloudy57 52301014.7CALM57285
Benson23:50ZMostly Cloudy57 54201014.1N 3 57206
Valley23:50ZCloudy57 52101014.1WSW 7 573
London / Gatwick Airport23:50ZNot Avail.57 54201014.1WSW 2 57203
Bristol / Lulsgate 23:50ZCloudy57 57251015.0WSW 5 57620
St Athan Royal Air Force Base23:50ZPartly Cloudy57 57201014.1WNW 3 57164
Culdrose23:50ZCloudy57 54201015.1WNW 4 57255
Plymouth00:00ZNot Avail.57 5491015.5W 3 57164
Mumbles23:50ZNot Avail.56 53201015.5NNW 5 56114
Lyneham00:00ZNot Avail.56 51201014.7NNW 2 56475
Milford Haven00:00ZNot Avail.55 54201015WNW 2 55144
Marham23:50ZNot Avail.55 46121013.1W 7 5575
Wittering23:50ZCloudy55 45351013.1WNW 8 55275
Lakenheath Royal Air Force Base23:58ZLight Drizzle55 51301013.5WNW 6 5532
Stansted Airport23:50ZClear55 50201014.0WNW 4 55347
Blackpool Airport23:50ZNot Avail.55 4730NNW 7 5532
Bournemouth Airport00:00ZNot Avail.55 53101014.7N 1 5536
Luton Airport 23:50ZClear55 45251014.0NW 8 55524
Cardiff-Wales Airport23:50ZMostly Cloudy55 55251015.1NW 4 55219
Boscombe Down23:50ZClear55 54301014.0W 4 55406
Birmingham / Airport23:50ZNot Avail.55 43251014.1N 3 55324
Dunkeswell Aerodrome00:00ZNot Avail.54 53171015.2W 4 53826
High Wicombe Hqstc00:00ZNot Avail.54 51201014.9N 2 54669
Holbeach00:00ZNot Avail.54 46301013.5W 6 529
Coningsby Royal Air Force Base23:50ZNot Avail.54 45251013.1W 6 5222
Wattisham23:50ZPartly Cloudy54 48301013.0WNW 6 52285
Aberporth00:00ZNot Avail.54 53301015.0S 3 54436
Pembrey Sands23:50ZMostly Cloudy54 52141015.1ENE 3 549
Hawarden00:00ZNot Avail.54 46251014.7W 5 5332
Walney Island00:00ZNot Avail.54 45251014NW 9 5149
Liverpool Airport 23:50ZNot Avail.54 48251014.1W 5 5385
Yeovilton23:50ZClear54 52251014.1SSW 3 5475
Cardinham00:00ZFog53 532.751015.5SW 2 53656
Pershore00:00ZNot Avail.53 49251015.2SW 2 53104
Aberdaron00:00ZNot Avail.53 521.371015.7SW 3 53311
Nottingham Weather Centre00:00ZNot Avail.53 44201014.4W 5 52383
Rhyl00:00ZNot Avail.53 46301014.9SW 5 52252
Mildenhall Royal Air Force Base23:58ZMostly Cloudy53 53251013.7W 7 5132
Liscombe00:00ZNot Avail.52 N/A81015.5WNW 3 1141
Little Rissington00:00ZNot Avail.52 48201014.5N 6 50705
Bedford00:00ZNot Avail.52 45301014.5W 5 51278
Shobdon00:00ZNot Avail.52 49131015.0W 3 52324
Capel Curig00:00ZNot Avail.52 47301015.5W 2 52708
Prestwick Rnas00:00ZNot Avail.52 47201013.0NW 6 5085
South Uist Range00:00ZNot Avail.52 47151012.5NNW 5 5132
Waddington23:50ZNot Avail.52 45251013.1W 6 50223
Norwich Weather Centre23:50ZClear52 46201013.1W 5 5145
Lossiemouth23:50ZNot Avail.52 45201011.1NW 10 4942
Boulmer23:50ZClear52 45251011.1W 10 4975
Kinloss23:50ZCloudy52 46161011.1W 7 5022
Machrihanish00:00ZNot Avail.52 49121013.5W 9 4942
Prestwick Airport23:50ZClear52 46251013.1NW 8 4965
Glasgow Airport23:50ZPartly Cloudy52 48251013.1W 4 5126
Kirkwall Airport23:50ZPartly Cloudy52 4891009.1WNW 9 4968
East Midlands23:50ZNot Avail.52 45201014.1W 9 49308
Humberside23:50ZClear52 46301013.1WSW 5 51101
Trawscoed00:00ZNot Avail.51 5071015.2CALM51206
Saint Bees Head00:00ZNot Avail.51 47191014WNW 11 47406
Aultbea00:00ZNot Avail.51 48101012W 5 4936
Sule Skerry00:00ZNot Avail.51 51201010.5NNW 13 4652
Church Lawford00:00ZNot Avail.50 46201014.7WSW 2 50351
Bridlington Mrsc00:00ZNot Avail.50 43251011.7W 7 4749
Carlisle00:00ZNot Avail.50 44301013.2N 5091
Charterhall00:00ZNot Avail.50 45301011.7W 10 46367
Strathallan00:00ZNot Avail.50 45301012.0SW 6 48114
Wainfleet00:00ZNot Avail.50 45151013.2W 7 479
Cranwell23:50ZPartly Cloudy50 45251013.1W 7 47219
Leconfield23:50ZClear50 45131012.1W 5 4819
Linton-On-Ouse23:50ZClear50 45131013.1SW 5 4852
Tain Range00:00ZNot Avail.50 46201011.4WNW 7 4713
Scatsa / Shetland Island23:50ZCloudy50 45251007.1NW 10 4672
Inverness / Dalcross23:50ZClear50 46251011.1W 6 4829
Aberdeen / Dyce23:50ZClear50 43251010.1W 8 47213
Wick23:50ZClear50 48101010.1WNW 9 46127
Shawbury23:50ZPartly Cloudy50 46301014.1ENE 1 50249
Isle Of Man / Ronaldsway Airport23:50ZMostly Cloudy50 46201014.1NNW 4 4955
Manchester Airport23:50ZClear50 45251014.1SW 3 50226
Belfast / Aldergrove Airport23:50ZNot Avail.50 45251015.1W 6 48265
Sennybridge00:00ZNot Avail.49 48251015.7ESE 1 491007
Lake Vyrnwy00:00ZNot Avail.49 44301015.2WNW 5 471181
Baltasound00:00ZNot Avail.49 44121006.5NNW 11 4449
Donna Nook00:00ZNot Avail.48 44151012.7WSW 6 4526
Bingley00:00ZNot Avail.48 44251013.7WNW 4 47859
Loftus Samos00:00ZNot Avail.48 43251012.2W 8 44190
Drumalbin00:00ZNot Avail.48 46201013W 7 45803
Aboyne00:00ZNot Avail.48 44251011.2W 5 46459
Lerwick00:00ZCloudy48 44201006.9NNW 10 44269
Leeming23:50ZClear48 41301012.1WSW 7 45131
Leuchars23:50ZNot Avail.48 45251011.1WSW 8 4439
Tiree23:50ZClear48 46131013.1NW 7 4539
Edinburgh Airport23:50ZNot Avail.48 45251012.1SW 7 45134
Sumburgh Cape 23:50ZMostly Cloudy48 4591007.1NNW 9 4416
Newcastle 23:50ZNot Avail.48 43201012.1W 7 45265
Leeds And Bradford23:50ZNot Avail.48 46251013.1WNW 7 45682
Glenanne00:00ZNot Avail.47 42201014.5NW 3 47528
Ballypatrick Forest00:00ZNot Avail.47 46131014.4WSW 8 43511
Castlederg00:00ZNot Avail.47 44201015.0W 2 47167
Warcop Range00:00ZNot Avail.47 43301013.7N 2 47744
Keswick00:00ZNot Avail.47 44251014N 1 47265
Eskdalemuir00:00ZNot Avail.47 42251013.2NW 5 45793
Aviemore00:00ZLight Showers47 44251011.7WNW 3 47721
Altnaharra00:00ZNot Avail.47 44171011.5ENE 1 47265
West Freugh00:00ZNot Avail.47 45201014.2W 5 4536
Lough Fea00:00ZNot Avail.46 42151015.2NNW 4 44738
Fylingdales23:50ZNot Avail.46 4125WNW 8 42859
Inverbervie00:00ZNot Avail.46 41251011.2WNW 6 43439
Loch Glascanoch00:00ZClear46 45161012.2W 5 44869
Stornoway23:50ZClear46 45131012.1NW 5 4429
Portglenone00:00ZNot Avail.45 42131014.4ESE 2 45209
Redesdale00:00ZNot Avail.45 41201012.7NW 2 45692
Shap00:00ZNot Avail.45 39191014.2ESE 1 45816
Glen Ogle23:50ZNot Avail.44 4330W 10 391850
Spadeadam00:00ZNot Avail.43 40191013WNW 6 39935
Tulloch Bridge00:00ZNot Avail.43 42101013.4CALM43777
Topcliffe Royal Air Force Base 23:50ZClear43 37251013.1WSW 4 4191
Spadeadam23:50ZClear43 41201012.2WNW 6 391066
Great Dun Fell00:00ZNot Avail.39 3930NW 7 Gusting to 26 342778
Cairnwell23:50ZNot Avail.39 3825WNW 15 313061
Aonach Mor00:00ZNot Avail.38 N/A10N Gusting to 0 3707
Cairngorm00:00ZNot Avail.35 N/A25WNW 23 Gusting to 33 4084

Atlantic
Tropical Watch